Weather History for Bismarck, ND

Change the Weather History Date:

Thursday, October 6, 2011

  Actual Average Record
Temperature  
Mean Temperature 67 °F 49 °F  
Max Temperature 74 °F 63 °F 91 °F (1920)
Min Temperature 60 °F 36 °F 19 °F (1991)
Degree Days  
Heating Degree Days 0 16  
Month to date heating degree days 6 88  
Since 1 July heating degree days 233 374  
Cooling Degree Days 2 0  
Month to date cooling degree days 14 0  
Year to date cooling degree days 425 519  
Growing Degree Days 16 (Base 50)    
Moisture  
Dew Point 51 °F    
Average Humidity 49    
Maximum Humidity 61    
Minimum Humidity 37    
Precipitation  
Precipitation 0.52 in 0.05 in 1.11 in (1994)
Month to date precipitation 0.52 0.27  
Year to date precipitation 21.86 15.67  
Snow  
Snow 0.00 in 0.00 in 4.70 in (1982)
Month to date snowfall 0.0 0.1  
Since 1 July snowfall 0.0 0.3  
Since 1 September snowfall 0.0 0.3  
Snow Depth 0.00 in    
Sea Level Pressure  
Sea Level Pressure 29.57 in    
Wind  
Wind Speed 21 mph (SSE)    
Max Wind Speed 32 mph    
Max Gust Speed 44 mph    
Visibility 9 miles    
Events Rain , Thunderstorm    
T = Trace of Precipitation, MM = Missing Value Source: NWS Daily Summary

Daily Weather History Graph

Daily Weather History Graph

Search for Another Location

Airport:

Trip Planner

Search our weather history database for the weather conditions in past years. The results will help you decide how hot, cold, wet, or windy it might be!

Date:

Astronomy

Oct. 06, 2011 Rise Set
Actual Time 7:48 AM CDT 7:13 PM CDT
Civil Twilight 7:17 AM CDT 7:43 PM CDT
Nautical Twilight 6:42 AM CDT 8:18 PM CDT
Astronomical Twilight 6:07 AM CDT 8:54 PM CDT
Moon 4:43 PM CDT (10/6) 2:20 AM CDT (10/6)
Length of Visible Light 12h 25m
Length of Day
11h 25m
Waxing Gibbous, 75% of the Moon is Illuminated
Oct 6
Waxing Gibbous
Oct 11
Full
Oct 19
Last Quarter
Oct 26
New
Nov 2
First Quarter

Hourly Weather History & Observations

Time (CDT) Temp. Dew Point Humidity Pressure Visibility Wind Dir Wind Speed Gust Speed Precip Events Conditions
12:52 AM 69.1 °F 43.0 °F 39% 29.62 in 10.0 mi SSE 24.2 mph 31.1 mph N/A   Clear
1:52 AM 66.9 °F 43.0 °F 42% 29.63 in 10.0 mi SSE 24.2 mph 31.1 mph N/A   Clear
2:52 AM 64.9 °F 44.1 °F 47% 29.63 in 10.0 mi SSE 19.6 mph - N/A   Clear
3:52 AM 64.4 °F 44.6 °F 49% 29.64 in 10.0 mi SSE 21.9 mph 27.6 mph N/A   Clear
4:52 AM 64.0 °F 44.1 °F 48% 29.61 in 10.0 mi SSE 23.0 mph 29.9 mph N/A   Clear
5:52 AM 62.1 °F 45.0 °F 53% 29.61 in 10.0 mi SSE 21.9 mph 28.8 mph N/A   Clear
6:52 AM 61.0 °F 46.0 °F 58% 29.62 in 10.0 mi SSE 20.7 mph 28.8 mph N/A   Clear
7:52 AM 61.0 °F 46.9 °F 60% 29.62 in 10.0 mi SSE 23.0 mph 29.9 mph N/A   Clear
8:52 AM 62.1 °F 48.0 °F 60% 29.62 in 10.0 mi SSE 21.9 mph 33.4 mph N/A   Clear
9:52 AM 63.0 °F 48.9 °F 60% 29.62 in 10.0 mi SSE 24.2 mph 32.2 mph N/A   Clear
10:52 AM 66.0 °F 50.0 °F 56% 29.61 in 10.0 mi SSE 25.3 mph 32.2 mph N/A   Clear
11:52 AM 66.9 °F 48.9 °F 52% 29.61 in 10.0 mi SSE 26.5 mph 38.0 mph N/A   Clear
12:52 PM 69.1 °F 50.0 °F 51% 29.59 in 10.0 mi SE 20.7 mph 29.9 mph N/A   Partly Cloudy
1:52 PM 69.1 °F 50.0 °F 51% 29.58 in 10.0 mi SE 24.2 mph 34.5 mph N/A   Clear
2:52 PM 71.1 °F 52.0 °F 51% 29.57 in 10.0 mi SSE 19.6 mph 27.6 mph N/A   Overcast
3:52 PM 72.0 °F 53.1 °F 51% 29.56 in 10.0 mi SSE 21.9 mph 28.8 mph N/A   Overcast
4:52 PM 72.0 °F 52.0 °F 49% 29.55 in 10.0 mi SSE 21.9 mph 31.1 mph N/A   Overcast
5:52 PM 72.0 °F 51.1 °F 48% 29.54 in 10.0 mi SE 21.9 mph - N/A   Mostly Cloudy
6:52 PM 72.0 °F 53.1 °F 51% 29.53 in 10.0 mi SE 20.7 mph 27.6 mph N/A   Overcast
7:52 PM 70.0 °F 54.0 °F 57% 29.52 in 10.0 mi SSE 17.3 mph - N/A   Partly Cloudy
8:52 PM 69.1 °F 55.0 °F 61% 29.52 in 10.0 mi SE 16.1 mph - N/A   Scattered Clouds
9:13 PM 66.2 °F 57.2 °F 73% 29.52 in 10.0 mi ESE 17.3 mph - 0.00 in Rain , Thunderstorm Light Rain
9:52 PM 63.0 °F 59.0 °F 87% 29.52 in 10.0 mi SE 13.8 mph - 0.15 in Rain , Thunderstorm Light Rain
10:27 PM 62.6 °F 59.0 °F 88% 29.54 in 6.0 mi SSE 20.7 mph 29.9 mph 0.09 in Rain Rain
10:45 PM 60.8 °F 59.0 °F 94% 29.52 in 3.0 mi SSE 19.6 mph 29.9 mph 0.19 in Rain , Thunderstorm Heavy Rain
10:52 PM 60.1 °F 59.0 °F 96% 29.49 in 3.0 mi SE 20.7 mph 25.3 mph 0.24 in Rain , Thunderstorm Heavy Rain
11:20 PM 60.8 °F 59.0 °F 94% 29.45 in 7.0 mi SE 24.2 mph 31.1 mph 0.11 in Rain Light Rain
11:52 PM 60.1 °F 57.9 °F 93% 29.48 in 10.0 mi SSE 15.0 mph - 0.12 in   Partly Cloudy